When you browse on this site, cookies collect data to enhance your experience and personalize the content and advertising you see.
Visit our Privacy Policy to learn more. By continuing to use the site, you agree to this use of cookies and data.
  • In Spain
  • List of Countries
  • For 7 days
  • Water Temperature
  • Satellite Maps
  • Weather Map
  • Weather Widgets
  • user-avatar
    Login

    Hourly Weather Resht

    Today, 18 November, Sunday

    Time Temperature Precipitation Wind Pressure Humidity
    00:00 +16°C° 0.2 mm 0 mps 767 mmHg 93%
    01:00 +18°C° 0.4 mm 1 mps 767 mmHg 94%
    02:00 +16°C° 0.4 mm 1 mps 767 mmHg 94%
    03:00 +16°C° 0.4 mm 1 mps 767 mmHg 94%
    04:00 +16°C° 0.5 mm 2 mps 767 mmHg 94%
    05:00 +16°C° 0.5 mm 2 mps 767 mmHg 94%
    06:00 +16°C° 0.5 mm 2 mps 767 mmHg 94%
    07:00 +16°C° 0.2 mm 2 mps 767 mmHg 91%
    08:00 +16°C° 0.2 mm 2 mps 767 mmHg 89%
    09:00 +16°C° 0.2 mm 2 mps 767 mmHg 86%
    10:00 +17°C° 0 mm 2 mps 766 mmHg 81%
    11:00 +17°C° 0 mm 2 mps 766 mmHg 77%
    12:00 +18°C° 0 mm 2 mps 766 mmHg 72%
    13:00 +18°C° 0.1 mm 2 mps 765 mmHg 76%
    14:00 +18°C° 0.1 mm 3 mps 765 mmHg 79%
    15:00 +17°C° 0.1 mm 3 mps 765 mmHg 83%
    16:00 +17°C° 0.3 mm 3 mps 765 mmHg 87%
    17:00 +16°C° 0.3 mm 3 mps 765 mmHg 90%
    18:00 +16°C° 0.3 mm 3 mps 765 mmHg 94%
    19:00 +16°C° 0.3 mm 2 mps 765 mmHg 94%
    20:00 +16°C° 0.3 mm 2 mps 765 mmHg 95%
    21:00 +16°C° 0.3 mm 2 mps 765 mmHg 95%
    22:00 +16°C° 0.2 mm 2 mps 766 mmHg 95%
    23:00 +16°C° 0.2 mm 2 mps 766 mmHg 96%

    Tomorrow, 19 November, Monday

    Time Temperature Precipitation Wind Pressure Humidity
    00:00 +15°C° 0.2 mm 2 mps 766 mmHg 96%
    01:00 +15°C° 0.2 mm 2 mps 766 mmHg 96%
    02:00 +15°C° 0.2 mm 2 mps 766 mmHg 96%
    03:00 +15°C° 0.2 mm 2 mps 766 mmHg 96%
    04:00 +15°C° 0.3 mm 2 mps 766 mmHg 96%
    05:00 +15°C° 0.3 mm 2 mps 766 mmHg 96%
    06:00 +15°C° 0.3 mm 2 mps 767 mmHg 96%
    07:00 +16°C° 0.4 mm 2 mps 767 mmHg 93%
    08:00 +16°C° 0.4 mm 2 mps 767 mmHg 91%
    09:00 +16°C° 0.4 mm 2 mps 768 mmHg 89%
    10:00 +17°C° 0.2 mm 2 mps 767 mmHg 86%
    11:00 +17°C° 0.2 mm 3 mps 767 mmHg 83%
    12:00 +18°C° 0.2 mm 3 mps 767 mmHg 80%
    13:00 +18°C° 0.1 mm 3 mps 767 mmHg 82%
    14:00 +17°C° 0.1 mm 3 mps 766 mmHg 84%
    15:00 +17°C° 0.1 mm 3 mps 766 mmHg 86%
    16:00 +17°C° 0.1 mm 3 mps 766 mmHg 89%
    17:00 +16°C° 0.1 mm 3 mps 767 mmHg 91%
    18:00 +16°C° 0.1 mm 3 mps 767 mmHg 94%
    19:00 +16°C° 0 mm 3 mps 767 mmHg 94%
    20:00 +16°C° 0 mm 2 mps 767 mmHg 93%
    21:00 +15°C° 0 mm 2 mps 767 mmHg 92%
    22:00 +15°C° 0 mm 2 mps 767 mmHg 92%
    23:00 +15°C° 0 mm 2 mps 767 mmHg 92%

    Day after tomorrow, 20 November, Tuesday

    Time Temperature Precipitation Wind Pressure Humidity
    00:00 +15°C° 0 mm 1 mps 767 mmHg 91%
    01:00 +14°C° 0 mm 1 mps 767 mmHg 90%
    02:00 +14°C° 0 mm 1 mps 767 mmHg 90%
    03:00 +14°C° 0 mm 2 mps 767 mmHg 89%
    04:00 +14°C° 0 mm 2 mps 766 mmHg 86%
    05:00 +14°C° 0 mm 2 mps 766 mmHg 84%
    06:00 +14°C° 0 mm 2 mps 766 mmHg 81%
    07:00 +16°C° 0 mm 2 mps 766 mmHg 74%
    08:00 +17°C° 0 mm 2 mps 766 mmHg 67%
    09:00 +19°C° 0 mm 2 mps 766 mmHg 60%
    10:00 +20°C° 0 mm 2 mps 766 mmHg 58%
    11:00 +21°C° 0 mm 2 mps 765 mmHg 55%
    12:00 +22°C° 0 mm 3 mps 765 mmHg 52%
    13:00 +22°C° 0 mm 3 mps 764 mmHg 55%
    14:00 +21°C° 0 mm 3 mps 764 mmHg 58%
    15:00 +21°C° 0 mm 3 mps 763 mmHg 61%
    16:00 +20°C° 0 mm 2 mps 764 mmHg 66%
    17:00 +19°C° 0 mm 2 mps 764 mmHg 71%
    18:00 +17°C° 0 mm 2 mps 764 mmHg 77%
    19:00 +18°C° 0 mm 1 mps 764 mmHg 75%
    20:00 +18°C° 0 mm 1 mps 764 mmHg 73%
    21:00 +18°C° 0 mm 1 mps 764 mmHg 71%
    22:00 +18°C° 0 mm 1 mps 764 mmHg 69%
    23:00 +18°C° 0 mm 1 mps 764 mmHg 67%

    21 November, Wednesday

    Time Temperature Precipitation Wind Pressure Humidity
    00:00 +16°C° 0 mm 1 mps 763 mmHg 65%
    01:00 +16°C° 0 mm 1 mps 763 mmHg 64%
    02:00 +15°C° 0 mm 0 mps 763 mmHg 63%
    03:00 +15°C° 0 mm 0 mps 763 mmHg 62%
    04:00 +16°C° 0 mm 1 mps 763 mmHg 60%
    05:00 +16°C° 0 mm 1 mps 763 mmHg 59%
    06:00 +16°C° 0 mm 1 mps 763 mmHg 57%
    07:00 +18°C° 0 mm 1 mps 763 mmHg 52%
    08:00 +20°C° 0 mm 1 mps 763 mmHg 47%
    09:00 +22°C° 0 mm 1 mps 763 mmHg 43%
    10:00 +23°C° 0 mm 1 mps 763 mmHg 42%
    11:00 +23°C° 0 mm 1 mps 762 mmHg 42%
    12:00 +24°C° 0 mm 2 mps 762 mmHg 41%
    13:00 +24°C° 0 mm 2 mps 761 mmHg 46%
    14:00 +23°C° 0 mm 2 mps 761 mmHg 50%
    15:00 +23°C° 0 mm 2 mps 761 mmHg 54%
    16:00 +20°C° 0 mm 2 mps 761 mmHg 62%
    17:00 +19°C° 0 mm 2 mps 761 mmHg 70%
    18:00 +17°C° 0 mm 2 mps 762 mmHg 78%
    19:00 +18°C° 0 mm 1 mps 762 mmHg 80%
    20:00 +18°C° 0 mm 1 mps 762 mmHg 82%
    21:00 +16°C° 0 mm 1 mps 762 mmHg 84%
    22:00 +16°C° 0 mm 1 mps 762 mmHg 85%
    23:00 +16°C° 0 mm 1 mps 762 mmHg 85%

    22 November, Thursday

    Time Temperature Precipitation Wind Pressure Humidity
    00:00 +15°C° 0 mm 0 mps 762 mmHg 85%
    01:00 +15°C° 0 mm 1 mps 762 mmHg 84%
    02:00 +15°C° 0 mm 1 mps 761 mmHg 83%
    03:00 +15°C° 0 mm 1 mps 761 mmHg 83%
    04:00 +15°C° 0 mm 1 mps 761 mmHg 78%
    05:00 +15°C° 0 mm 1 mps 761 mmHg 74%
    06:00 +16°C° 0 mm 1 mps 761 mmHg 70%
    07:00 +18°C° 0 mm 1 mps 761 mmHg 64%
    08:00 +19°C° 0 mm 2 mps 761 mmHg 58%
    09:00 +20°C° 0 mm 2 mps 762 mmHg 52%
    10:00 +21°C° 0 mm 2 mps 761 mmHg 50%
    11:00 +23°C° 0 mm 2 mps 761 mmHg 48%
    12:00 +24°C° 0 mm 2 mps 760 mmHg 46%
    13:00 +23°C° 0 mm 2 mps 760 mmHg 49%
    14:00 +23°C° 0 mm 2 mps 760 mmHg 52%
    15:00 +21°C° 0 mm 3 mps 759 mmHg 54%
    16:00 +21°C° 0 mm 2 mps 760 mmHg 57%
    17:00 +20°C° 0 mm 2 mps 760 mmHg 60%
    18:00 +19°C° 0 mm 2 mps 760 mmHg 63%
    19:00 +19°C° 0 mm 2 mps 761 mmHg 62%
    20:00 +18°C° 0 mm 2 mps 761 mmHg 61%
    21:00 +18°C° 0 mm 2 mps 761 mmHg 59%
    22:00 +18°C° 0 mm 2 mps 761 mmHg 59%
    23:00 +18°C° 0 mm 2 mps 761 mmHg 59%

    23 November, Friday

    Time Temperature Precipitation Wind Pressure Humidity
    00:00 +18°C° 0 mm 2 mps 761 mmHg 59%
    01:00 +17°C° 0 mm 2 mps 761 mmHg 59%
    02:00 +17°C° 0 mm 2 mps 761 mmHg 60%
    03:00 +17°C° 0 mm 2 mps 761 mmHg 61%
    04:00 +16°C° 0.1 mm 2 mps 761 mmHg 62%
    05:00 +16°C° 0.1 mm 2 mps 761 mmHg 64%
    06:00 +16°C° 0.1 mm 2 mps 762 mmHg 66%
    07:00 +17°C° 0 mm 2 mps 762 mmHg 63%
    08:00 +19°C° 0 mm 2 mps 762 mmHg 60%
    09:00 +20°C° 0 mm 2 mps 763 mmHg 57%
    10:00 +20°C° 0.1 mm 2 mps 762 mmHg 59%
    11:00 +20°C° 0.1 mm 2 mps 762 mmHg 60%
    12:00 +21°C° 0.1 mm 3 mps 762 mmHg 61%
    13:00 +20°C° 0.3 mm 3 mps 762 mmHg 68%
    14:00 +19°C° 0.3 mm 3 mps 762 mmHg 74%
    15:00 +19°C° 0.3 mm 3 mps 762 mmHg 81%
    16:00 +18°C° 0.7 mm 3 mps 762 mmHg 85%
    17:00 +18°C° 0.7 mm 4 mps 763 mmHg 89%
    18:00 +17°C° 0.7 mm 4 mps 763 mmHg 92%
    19:00 +17°C° 2.6 mm 4 mps 764 mmHg 93%
    20:00 +17°C° 2.6 mm 4 mps 764 mmHg 93%
    21:00 +15°C° 2.6 mm 4 mps 764 mmHg 93%
    22:00 +15°C° 3.9 mm 4 mps 765 mmHg 94%
    23:00 +15°C° 3.9 mm 4 mps 765 mmHg 95%
    Show more